{"data":{"norad_id":66606,"epoch":"2026-09-20T09:10:35.899680Z","epoch_age_seconds":96815,"freshness":"FRESH","line1":"1 66606U 25270U   26263.38235995  .00012517  00000+0  46350-3 0  9999","line2":"2 66606  43.0024  36.4753 0000698 213.6374 146.4433 15.27587871 47485","mean_motion":15.27587871,"eccentricity":6.98e-5,"inclination_deg":43.0024,"raan_deg":36.4753,"arg_perigee_deg":213.6374,"mean_anomaly_deg":146.4433,"bstar":0.0004635,"rev_number":4748,"period_min":94.266262997842,"perigee_km":482.54661839085,"apogee_km":483.5044366797,"semimajor_km":6861.1625275353,"source":"CELESTRAK","updated_at":"2026-09-21T09:00:35.979485Z"}}